Погода в Комаровке

Россия / Пензенская область     52°59′25″N   46°42′29″E
темп.,
°C
ветер,
м/с
пор.,
м/с
влажн.,
%
обл.,
%
осадки,
мм/ч
давл.,
гПа
погр.,
м
27 сентября, пн
пн2700:00+9св51093100 0.6 1003573
03:00+9св51194100 1.2 1004729
06:00+8ссв51291100 1.3 1005565
09:00+10ссв6108780 1.4 1007690
12:00+9с5988100 0.1 1009838
15:00+8с51089100 0.4 1010749
18:00+7с5891100 0.0 1013716
21:00+6ссв4995100 0.3 1014608
28 сентября, вт
вт2800:00+6св5986100 0.1 1016658
03:00+4св5896100 0.4 1018791
06:00+3св5988100 0.1 1020883
09:00+4св5877100 0.1 1022983
12:00+5св5869100 0.1 10231241
15:00+5св5968100 0.1 10251222
18:00+6св4859100 0.0 1026832
21:00+4ссв497311 0.0 1028536
29 сентября, ср
ср2900:00+1ссв398551 0.0 1028292
03:000с3987100 0.0 1029306
06:000ссв4118797 0.0 1030353
09:00+5св58655 0.0 1030936
12:00+8св464873 0.0 10301593
15:00+8св564460 0.0 10301709
18:00+4св266749 0.0 1031119
21:00+2ссв22765 0.0 103237
30 сентября, чт
чт3000:00+1ссв22805 0.0 103325
03:00+1с22845 0.0 103324
06:000с22885 0.0 103429
09:00+6с23605 0.0 1034476
12:00+9ссв234771 0.0 10331558
15:00+8с3353100 0.0 10331093
18:00+6с2366100 0.0 1034102
21:00+6с247199 0.0 1034138
1 октября, пт
пт100:00+3ссз11875 0.0 103510
03:00+2сз228797 0.0 103519
06:00+5зсз2579100 0.0 1035154
09:00+7зсз35697 0.0 1035287
12:00+11ссз3558100 0.0 1034994
15:00+11сз356527 0.0 1033697
18:00+7зсз258444 0.0 1034101
21:00+6сз269094 0.0 1034116